Weather History for Elizabethton, TN

Change the Weather History Date:

Saturday, August 3, 2013

  Actual Average (KTRI) Record (KTRI)
Temperature  
Mean Temperature 71 °F 74 °F  
Max Temperature 80 °F 85 °F 97 °F (1944)
Min Temperature 62 °F 64 °F 52 °F (1998)
Degree Days  
Heating Degree Days 0 0  
Month to date heating degree days 0  
Since 1 June heating degree days 11  
Since 1 July heating degree days 0  
Cooling Degree Days 6 9  
Month to date cooling degree days 29  
Year to date cooling degree days 607  
Since 1 June cooling degree days 534  
Growing Degree Days 21 (Base 50)    
Moisture  
Dew Point 63 °F    
Average Humidity 78    
Maximum Humidity 100    
Minimum Humidity 58    
Precipitation  
Precipitation 0.00 in 0.13 in 1.60 in (1947)
Month to date precipitation 0.39  
Year to date precipitation 26.37  
Snow  
Snow 0.00 in 0.00 in - ()
Month to date snowfall 0.0  
Since 1 June snowfall 0.0  
Since 1 July snowfall 0.0  
Snow Depth -    
Sea Level Pressure  
Sea Level Pressure 30.07 in    
Wind  
Wind Speed 3 mph (WNW)    
Max Wind Speed 10 mph    
Max Gust Speed -    
Visibility 10 miles    
Events      
T = Trace of Precipitation, MM = Missing Value Source: NWS Daily Summary

Daily Weather History Graph

Daily Weather History Graph

Search for Another Location

Airport:

Trip Planner

Search our weather history database for the weather conditions in past years. The results will help you decide how hot, cold, wet, or windy it might be!

Date:

Astronomy

Aug. 03, 2013 Rise Set
Actual Time 6:37 AM EDT 8:32 PM EDT
Civil Twilight 6:08 AM EDT 9:00 PM EDT
Nautical Twilight 5:34 AM EDT 9:34 PM EDT
Astronomical Twilight 4:57 AM EDT 10:11 PM EDT
Moon 3:46 AM EDT (8/3) 6:12 PM EDT (8/3)
Length of Visible Light 14h 51m
Length of Day
13h 55m
Waning Crescent, 9% of the Moon is Illuminated
Aug 3
Waning Crescent
Aug 6
New
Aug 14
First Quarter
Aug 20
Full
Aug 28
Last Quarter

Hourly Weather History & Observations

Time (EDT) Temp. Heat Index Dew Point Humidity Pressure Visibility Wind Dir Wind Speed Gust Speed Precip Events Conditions
12:15 AM 64.4 °F - 59.0 °F 83% 30.10 in 10.0 mi Calm Calm - N/A   Clear
12:35 AM 62.6 °F - 59.0 °F 88% 30.10 in 10.0 mi Calm Calm - N/A   Clear
12:55 AM 62.6 °F - 59.0 °F 88% 30.09 in 10.0 mi NE 3.5 mph - N/A   Partly Cloudy
1:15 AM 62.6 °F - 59.0 °F 88% 30.09 in 10.0 mi NE 4.6 mph - N/A   Clear
1:35 AM 62.6 °F - 57.2 °F 82% 30.09 in 10.0 mi NE 3.5 mph - N/A   Clear
1:55 AM 62.6 °F - 57.2 °F 82% 30.09 in 10.0 mi NE 5.8 mph - N/A   Clear
2:15 AM 62.6 °F - 57.2 °F 82% 30.08 in 10.0 mi NE 3.5 mph - N/A   Clear
2:35 AM 62.6 °F - 57.2 °F 82% 30.08 in 10.0 mi ENE 4.6 mph - N/A   Clear
2:55 AM 62.6 °F - 59.0 °F 88% 30.08 in 10.0 mi NNE 3.5 mph - N/A   Clear
3:15 AM 62.6 °F - 59.0 °F 88% 30.08 in 10.0 mi Calm Calm - N/A   Clear
3:35 AM 62.6 °F - 60.8 °F 94% 30.08 in 10.0 mi Calm Calm - N/A   Mostly Cloudy
3:55 AM 62.6 °F - 59.0 °F 88% 30.08 in 10.0 mi NE 4.6 mph - N/A   Mostly Cloudy
4:15 AM 62.6 °F - 59.0 °F 88% 30.08 in 10.0 mi East 4.6 mph - N/A   Partly Cloudy
4:35 AM 62.6 °F - 59.0 °F 88% 30.08 in 10.0 mi Calm Calm - N/A   Clear
4:55 AM 62.6 °F - 60.8 °F 94% 30.08 in 10.0 mi Calm Calm - N/A   Clear
5:15 AM 62.6 °F - 60.8 °F 94% 30.08 in 10.0 mi NE 3.5 mph - N/A   Clear
5:35 AM 62.6 °F - 60.8 °F 94% 30.08 in 10.0 mi Calm Calm - N/A   Clear
5:55 AM 62.6 °F - 60.8 °F 94% 30.08 in 10.0 mi Calm Calm - N/A   Clear
6:15 AM 62.6 °F - 60.8 °F 94% 30.09 in 10.0 mi Calm Calm - N/A   Clear
6:35 AM 62.6 °F - 60.8 °F 94% 30.09 in 10.0 mi Calm Calm - N/A   Clear
6:55 AM 62.6 °F - 60.8 °F 94% 30.09 in 10.0 mi Calm Calm - N/A   Clear
7:15 AM 62.6 °F - 60.8 °F 94% 30.08 in 10.0 mi Calm Calm - N/A   Clear
7:35 AM 62.6 °F - 62.6 °F 100% 30.09 in 10.0 mi Calm Calm - N/A   Clear
7:55 AM 64.4 °F - 62.6 °F 94% 30.08 in 10.0 mi Calm Calm - N/A   Clear
8:15 AM 64.4 °F - 62.6 °F 94% 30.09 in 10.0 mi Calm Calm - N/A   Clear
8:35 AM 64.4 °F - 62.6 °F 94% 30.09 in 10.0 mi Calm Calm - N/A   Clear
8:55 AM 66.2 °F - 62.6 °F 88% 30.09 in 10.0 mi Calm Calm - N/A   Clear
9:15 AM 68.0 °F - 62.6 °F 83% 30.09 in 10.0 mi Calm Calm - N/A   Clear
9:35 AM 69.8 °F - 64.4 °F 83% 30.09 in 10.0 mi Calm Calm - N/A   Clear
9:55 AM 71.6 °F - 64.4 °F 78% 30.08 in 10.0 mi Calm Calm - N/A   Clear
10:15 AM 73.4 °F - 64.4 °F 73% 30.09 in 10.0 mi Calm Calm - N/A   Clear
10:35 AM 75.2 °F - 64.4 °F 69% 30.09 in 10.0 mi Variable 3.5 mph - N/A   Clear
10:55 AM 75.2 °F - 64.4 °F 69% 30.09 in 10.0 mi West 4.6 mph - N/A   Clear
11:15 AM 78.8 °F - 64.4 °F 61% 30.09 in 10.0 mi WSW 4.6 mph - N/A   Clear
11:35 AM 78.8 °F - 66.2 °F 65% 30.09 in 10.0 mi Variable 6.9 mph - N/A   Partly Cloudy
11:55 AM 78.8 °F - 64.4 °F 61% 30.08 in 10.0 mi WNW 6.9 mph - N/A   Partly Cloudy
12:15 PM 80.6 °F 82.3 °F 64.4 °F 58% 30.08 in 10.0 mi West 4.6 mph - N/A   Partly Cloudy
12:35 PM 78.8 °F - 64.4 °F 61% 30.08 in 10.0 mi West 4.6 mph - N/A   Scattered Clouds
12:55 PM 80.6 °F 82.3 °F 64.4 °F 58% 30.08 in 10.0 mi WSW 6.9 mph - N/A   Scattered Clouds
1:15 PM 80.6 °F 82.7 °F 66.2 °F 61% 30.07 in 10.0 mi West 8.1 mph - N/A   Scattered Clouds
1:35 PM 80.6 °F 82.3 °F 64.4 °F 58% 30.07 in 10.0 mi WSW 10.4 mph - N/A   Scattered Clouds
1:55 PM 80.6 °F 82.3 °F 64.4 °F 58% 30.08 in 10.0 mi West 8.1 mph - N/A   Scattered Clouds
2:15 PM 80.6 °F 82.3 °F 64.4 °F 58% 30.08 in 10.0 mi West 10.4 mph - N/A   Partly Cloudy
2:35 PM 80.6 °F 82.3 °F 64.4 °F 58% 30.07 in 10.0 mi West 8.1 mph - N/A   Clear
2:55 PM 80.6 °F 82.3 °F 64.4 °F 58% 30.07 in 10.0 mi West 5.8 mph - N/A   Clear
3:15 PM 80.6 °F 82.3 °F 64.4 °F 58% 30.06 in 10.0 mi WNW 6.9 mph - N/A   Clear
3:35 PM 80.6 °F 82.3 °F 64.4 °F 58% 30.05 in 10.0 mi WSW 9.2 mph - N/A   Partly Cloudy
3:55 PM 80.6 °F 82.3 °F 64.4 °F 58% 30.06 in 10.0 mi West 6.9 mph - N/A   Scattered Clouds
4:15 PM 80.6 °F 82.3 °F 64.4 °F 58% 30.05 in 10.0 mi West 6.9 mph - N/A   Mostly Cloudy
4:35 PM 78.8 °F - 64.4 °F 61% 30.05 in 10.0 mi West 5.8 mph - N/A   Mostly Cloudy
4:55 PM 80.6 °F 82.3 °F 64.4 °F 58% 30.05 in 10.0 mi West 4.6 mph - N/A   Overcast
5:15 PM 78.8 °F - 64.4 °F 61% 30.05 in 10.0 mi WSW 8.1 mph - N/A   Overcast
5:35 PM 78.8 °F - 64.4 °F 61% 30.04 in 10.0 mi Calm Calm - N/A   Mostly Cloudy
5:55 PM 78.8 °F - 66.2 °F 65% 30.04 in 10.0 mi Variable 3.5 mph - N/A   Mostly Cloudy
6:15 PM 78.8 °F - 66.2 °F 65% 30.03 in 10.0 mi WSW 5.8 mph - N/A   Mostly Cloudy
6:35 PM 78.8 °F - 66.2 °F 65% 30.03 in 10.0 mi WNW 6.9 mph - N/A   Partly Cloudy
6:55 PM 77.0 °F - 66.2 °F 69% 30.04 in 10.0 mi West 3.5 mph - N/A   Mostly Cloudy
7:15 PM 77.0 °F - 66.2 °F 69% 30.03 in 10.0 mi West 5.8 mph - N/A   Mostly Cloudy
7:35 PM 75.2 °F - 66.2 °F 73% 30.03 in 10.0 mi Calm Calm - N/A   Mostly Cloudy
7:55 PM 73.4 °F - 68.0 °F 83% 30.03 in 10.0 mi WNW 3.5 mph - N/A   Partly Cloudy
8:15 PM 71.6 °F - 68.0 °F 88% 30.04 in 10.0 mi NNW 3.5 mph - N/A   Partly Cloudy
8:35 PM 71.6 °F - 66.2 °F 83% 30.04 in 10.0 mi Calm Calm - N/A   Mostly Cloudy
8:55 PM 69.8 °F - 66.2 °F 88% 30.04 in 10.0 mi Calm Calm - N/A   Mostly Cloudy
9:15 PM 69.8 °F - 66.2 °F 88% 30.05 in 10.0 mi Calm Calm - N/A   Overcast
9:35 PM 69.8 °F - 66.2 °F 88% 30.05 in 10.0 mi Calm Calm - N/A   Overcast
9:55 PM 69.8 °F - 68.0 °F 94% 30.05 in 10.0 mi Calm Calm - N/A   Overcast
10:15 PM 71.6 °F - 68.0 °F 88% 30.05 in 10.0 mi Calm Calm - N/A   Overcast
10:35 PM 71.6 °F - 68.0 °F 88% 30.06 in 10.0 mi Calm Calm - N/A   Overcast
10:55 PM 69.8 °F - 68.0 °F 94% 30.06 in 10.0 mi Calm Calm - N/A   Overcast
11:15 PM 69.8 °F - 68.0 °F 94% 30.06 in 10.0 mi Calm Calm - N/A   Overcast
11:35 PM 71.6 °F - 68.0 °F 88% 30.06 in 9.0 mi Calm Calm - N/A   Overcast
11:55 PM 71.6 °F - 68.0 °F 88% 30.06 in 10.0 mi Calm Calm - N/A   Overcast